Terminal Aerodrome Forecast
Issued by NWS Anchorage, AK

Home | Current Version | Previous Version | Text Only | Print | Product List | Glossary On
Versions: 1 2 3 4 5 6 7 8 9 10 11 12 13 14 15 16 17 18 19 20 21 22 23 24 25 26 27 28 29 30 31 32 33 34 35 36 37 38 39 40 41 42 43 44 45 46 47 48 49 50
000
FTAK31 PANC 260207 AAB
TAFANC
TAF AMD
PANC 260207Z 2602/2706 17014G22KT P6SM FEW015 SCT100 SCT200
     FM260800 17010KT P6SM FEW015 SCT100 BKN200
     FM261900 16005KT 3SM -SHSN BKN020
     FM270000 20007KT P6SM VCSH SCT025 BKN045=

USA.gov is the U.S. government's official web portal to all federal, state and local government web resources and services.